• In Hungary
  • List of Countries
  • For 7 days
  • Water Temperature
  • Satellite Maps
  • Weather Map
  • News
  • Weather Widgets
  • user-avatar
    Login

    Hourly Weather Trzebieslawice

    Today, 19 October, Thursday

    Time Temperature Precipitation Wind Pressure Humidity
    00:00 +13°C° 0 mm 1 mps 731 mmHg 74%
    01:00 +13°C° 0 mm 1 mps 731 mmHg 78%
    02:00 +13°C° 0 mm 1 mps 731 mmHg 79%
    03:00 +12°C° 0 mm 1 mps 731 mmHg 81%
    04:00 +12°C° 0 mm 1 mps 731 mmHg 83%
    05:00 +12°C° 0 mm 1 mps 731 mmHg 84%
    06:00 +12°C° 0 mm 1 mps 731 mmHg 84%
    07:00 +12°C° 0 mm 1 mps 732 mmHg 82%
    08:00 +13°C° 0 mm 1 mps 732 mmHg 76%
    09:00 +15°C° 0 mm 1 mps 732 mmHg 71%
    10:00 +16°C° 0 mm 2 mps 732 mmHg 65%
    11:00 +18°C° 0 mm 1 mps 732 mmHg 62%
    12:00 +19°C° 0 mm 1 mps 732 mmHg 59%
    13:00 +19°C° 0 mm 1 mps 732 mmHg 61%
    14:00 +18°C° 0 mm 1 mps 732 mmHg 63%
    15:00 +18°C° 0 mm 1 mps 732 mmHg 66%
    16:00 +18°C° 0 mm 1 mps 732 mmHg 68%
    17:00 +16°C° 0 mm 1 mps 732 mmHg 73%
    18:00 +14°C° 0 mm 0 mps 732 mmHg 77%
    19:00 +13°C° 0 mm 0 mps 732 mmHg 81%
    20:00 +12°C° 0 mm 0 mps 733 mmHg 83%
    21:00 +12°C° 0 mm 0 mps 733 mmHg 85%
    22:00 +11°C° 0 mm 0 mps 733 mmHg 86%
    23:00 +12°C° 0 mm 1 mps 733 mmHg 87%

    Tomorrow, 20 October, Friday

    Time Temperature Precipitation Wind Pressure Humidity
    00:00 +12°C° 0 mm 1 mps 733 mmHg 88%
    01:00 +11°C° 0 mm 1 mps 733 mmHg 89%
    02:00 +11°C° 0 mm 1 mps 733 mmHg 89%
    03:00 +11°C° 0 mm 1 mps 733 mmHg 90%
    04:00 +11°C° 0 mm 1 mps 733 mmHg 90%
    05:00 +11°C° 0 mm 1 mps 733 mmHg 90%
    06:00 +11°C° 0 mm 1 mps 733 mmHg 90%
    07:00 +11°C° 0 mm 1 mps 733 mmHg 90%
    08:00 +13°C° 0 mm 1 mps 734 mmHg 83%
    09:00 +14°C° 0 mm 2 mps 734 mmHg 75%
    10:00 +16°C° 0 mm 2 mps 734 mmHg 67%
    11:00 +17°C° 0 mm 2 mps 734 mmHg 62%
    12:00 +19°C° 0 mm 1 mps 734 mmHg 58%
    13:00 +20°C° 0 mm 1 mps 734 mmHg 53%
    14:00 +19°C° 0 mm 1 mps 734 mmHg 55%
    15:00 +19°C° 0 mm 1 mps 733 mmHg 58%
    16:00 +18°C° 0 mm 1 mps 733 mmHg 60%
    17:00 +16°C° 0 mm 1 mps 733 mmHg 64%
    18:00 +15°C° 0 mm 1 mps 734 mmHg 68%
    19:00 +14°C° 0 mm 2 mps 734 mmHg 72%
    20:00 +14°C° 0 mm 2 mps 734 mmHg 74%
    21:00 +13°C° 0 mm 2 mps 734 mmHg 76%
    22:00 +13°C° 0 mm 2 mps 734 mmHg 78%
    23:00 +13°C° 0 mm 2 mps 734 mmHg 78%

    Day after tomorrow, 21 October, Saturday

    Time Temperature Precipitation Wind Pressure Humidity
    00:00 +12°C° 0 mm 2 mps 734 mmHg 78%
    01:00 +12°C° 0 mm 2 mps 734 mmHg 78%
    02:00 +12°C° 0 mm 2 mps 734 mmHg 79%
    03:00 +10°C° 0 mm 2 mps 733 mmHg 79%
    04:00 +10°C° 0 mm 2 mps 733 mmHg 79%
    05:00 +10°C° 0 mm 2 mps 733 mmHg 79%
    06:00 +10°C° 0 mm 2 mps 733 mmHg 78%
    07:00 +10°C° 0 mm 2 mps 733 mmHg 77%
    08:00 +13°C° 0 mm 2 mps 733 mmHg 73%
    09:00 +14°C° 0 mm 2 mps 733 mmHg 69%
    10:00 +15°C° 0 mm 2 mps 734 mmHg 65%
    11:00 +15°C° 0 mm 2 mps 733 mmHg 66%
    12:00 +15°C° 0 mm 2 mps 733 mmHg 67%
    13:00 +16°C° 0 mm 2 mps 733 mmHg 68%
    14:00 +15°C° 0.1 mm 2 mps 733 mmHg 71%
    15:00 +15°C° 0.1 mm 1 mps 733 mmHg 73%
    16:00 +15°C° 0.1 mm 1 mps 732 mmHg 76%
    17:00 +14°C° 0 mm 1 mps 732 mmHg 78%
    18:00 +14°C° 0 mm 1 mps 732 mmHg 80%
    19:00 +13°C° 0 mm 1 mps 733 mmHg 82%
    20:00 +13°C° 0 mm 1 mps 733 mmHg 83%
    21:00 +13°C° 0 mm 1 mps 733 mmHg 84%
    22:00 +13°C° 0 mm 1 mps 733 mmHg 85%
    23:00 +12°C° 0 mm 1 mps 733 mmHg 86%

    22 October, Sunday

    Time Temperature Precipitation Wind Pressure Humidity
    00:00 +12°C° 0 mm 1 mps 732 mmHg 87%
    01:00 +12°C° 0 mm 1 mps 732 mmHg 88%
    02:00 +12°C° 0 mm 1 mps 732 mmHg 88%
    03:00 +12°C° 0 mm 2 mps 732 mmHg 89%
    04:00 +12°C° 0 mm 2 mps 732 mmHg 89%
    05:00 +10°C° 0 mm 2 mps 732 mmHg 89%
    06:00 +10°C° 0 mm 2 mps 732 mmHg 89%
    07:00 +10°C° 0 mm 2 mps 732 mmHg 89%
    08:00 +12°C° 0.1 mm 2 mps 732 mmHg 86%
    09:00 +13°C° 0.1 mm 2 mps 732 mmHg 84%
    10:00 +13°C° 0.1 mm 2 mps 732 mmHg 81%
    11:00 +13°C° 0.5 mm 2 mps 732 mmHg 83%
    12:00 +13°C° 0.5 mm 2 mps 731 mmHg 85%
    13:00 +13°C° 0.5 mm 2 mps 731 mmHg 86%
    14:00 +13°C° 1.4 mm 2 mps 731 mmHg 88%
    15:00 +12°C° 1.4 mm 2 mps 731 mmHg 90%
    16:00 +12°C° 1.4 mm 2 mps 731 mmHg 92%
    17:00 +12°C° 0.9 mm 2 mps 731 mmHg 92%
    18:00 +12°C° 0.9 mm 2 mps 731 mmHg 93%
    19:00 +10°C° 0.9 mm 2 mps 731 mmHg 93%
    20:00 +10°C° 0.5 mm 3 mps 731 mmHg 92%
    21:00 +10°C° 0.5 mm 3 mps 731 mmHg 92%
    22:00 +10°C° 0.5 mm 4 mps 731 mmHg 91%
    23:00 +10°C° 0.6 mm 4 mps 730 mmHg 90%

    23 October, Monday

    Time Temperature Precipitation Wind Pressure Humidity
    00:00 +10°C° 0.6 mm 4 mps 730 mmHg 90%
    01:00 +8°C° 0.6 mm 4 mps 730 mmHg 90%
    02:00 +8°C° 0.9 mm 4 mps 730 mmHg 90%
    03:00 +8°C° 0.9 mm 4 mps 730 mmHg 90%
    04:00 +8°C° 0.9 mm 4 mps 730 mmHg 90%
    05:00 +8°C° 1 mm 4 mps 730 mmHg 91%
    06:00 +8°C° 1 mm 4 mps 730 mmHg 91%
    07:00 +7°C° 1 mm 5 mps 730 mmHg 91%
    08:00 +7°C° 0.9 mm 5 mps 730 mmHg 91%
    09:00 +7°C° 0.9 mm 5 mps 730 mmHg 90%
    10:00 +7°C° 0.9 mm 5 mps 730 mmHg 89%
    11:00 +7°C° 0.8 mm 5 mps 731 mmHg 89%
    12:00 +7°C° 0.8 mm 5 mps 731 mmHg 89%
    13:00 +7°C° 0.8 mm 5 mps 731 mmHg 88%
    14:00 +7°C° 0.8 mm 5 mps 731 mmHg 89%
    15:00 +7°C° 0.8 mm 4 mps 731 mmHg 89%
    16:00 +7°C° 0.8 mm 4 mps 731 mmHg 90%
    17:00 +7°C° 0.9 mm 4 mps 732 mmHg 91%
    18:00 +7°C° 0.9 mm 4 mps 732 mmHg 92%
    19:00 +9°C° 0.9 mm 3 mps 732 mmHg 93%
    20:00 +9°C° 0.4 mm 3 mps 732 mmHg 93%
    21:00 +9°C° 0.4 mm 3 mps 733 mmHg 93%
    22:00 +9°C° 0.4 mm 3 mps 733 mmHg 93%
    23:00 +9°C° 0.4 mm 3 mps 733 mmHg 93%

    24 October, Tuesday

    Time Temperature Precipitation Wind Pressure Humidity
    00:00 +9°C° 0.4 mm 3 mps 733 mmHg 94%
    01:00 +9°C° 0.4 mm 3 mps 734 mmHg 94%
    02:00 +9°C° 0.5 mm 3 mps 734 mmHg 94%
    03:00 +9°C° 0.5 mm 3 mps 734 mmHg 93%
    04:00 +8°C° 0.5 mm 3 mps 734 mmHg 93%
    05:00 +8°C° 0.5 mm 3 mps 735 mmHg 93%
    06:00 +8°C° 0.5 mm 3 mps 735 mmHg 93%
    07:00 +8°C° 0.5 mm 3 mps 735 mmHg 93%
    08:00 +8°C° 0.8 mm 3 mps 735 mmHg 92%
    09:00 +8°C° 0.8 mm 3 mps 736 mmHg 92%
    10:00 +7°C° 0.8 mm 4 mps 736 mmHg 92%
    11:00 +7°C° 0.6 mm 4 mps 736 mmHg 91%
    12:00 +7°C° 0.6 mm 4 mps 736 mmHg 90%
    13:00 +7°C° 0.6 mm 4 mps 736 mmHg 89%
    14:00 +7°C° 0.5 mm 4 mps 737 mmHg 89%
    15:00 +8°C° 0.5 mm 3 mps 737 mmHg 90%
    16:00 +8°C° 0.5 mm 3 mps 737 mmHg 90%
    17:00 +8°C° 0.4 mm 3 mps 737 mmHg 90%
    18:00 +8°C° 0.4 mm 3 mps 738 mmHg 90%
    19:00 +8°C° 0.4 mm 3 mps 738 mmHg 91%
    20:00 +7°C° 0.2 mm 3 mps 738 mmHg 91%
    21:00 +7°C° 0.2 mm 3 mps 738 mmHg 91%
    22:00 +7°C° 0.2 mm 3 mps 739 mmHg 91%
    23:00 +7°C° 0 mm 3 mps 739 mmHg 90%
    Show more